Regional Weather Roundup
Issued by NWS

Home | Current Version | Previous Version | Graphics & Text | Print | Product List | Glossary On
Versions: 1 2 3 4 5 6 7 8 9 10 11 12 13 14 15 16 17 18 19 20 21 22 23 24 25 26 27 28 29 30 31 32 33 34 35 36 37 38 39 40 41 42 43 44 45 46 47 48 49 50
000
ASUS43 KDMX 012207
RWRIA

WEATHER ROUNDUP FOR IOWA
NATIONAL WEATHER SERVICE DES MOINES IA
500 PM CDT WED JUL 01 2015

NOTE: "FAIR" INDICATES FEW OR NO CLOUDS BELOW 12,000 FEET WITH NO
SIGNIFICANT WEATHER AND/OR OBSTRUCTIONS TO VISIBILITY.

* - THESE STATIONS ARE NOT NWS STATIONS...THUS NOT UNDER NWS
QUALITY CONTROL.  THEY ALSO DO NOT REPORT WEATHER SUCH
AS PRECIPITATION OR FOG.

IAZ001>003-012>014-020>022-031>034-043>046-012300-
   NORTHWEST IOWA

CITY           SKY/WX    TMP DP  RH WIND       PRES   REMARKS
CARROLL *      CLOUDY    72  64  78 E10       29.92F
CHEROKEE *     PTSUNNY   73  64  73 SE8G16    29.93F
DENISON *      PTSUNNY   73  68  83 E10       29.89F
LE MARS *      CLOUDY    75  66  73 SE6G13    29.93S
ORANGE CITY *  CLOUDY    72  63  73 E6        29.94S
SHELDON *      SUNNY     73  61  64 E14       29.93S
SIOUX CITY     CLOUDY    75  66  73 E10       29.90S
SPENCER        CLOUDY    73  45  36 SE15      29.96S
STORM LAKE *   MOSUNNY   73  61  64 E12G18    29.94F
$$

IAZ055>058-069>071-079>083-090>094-012300-
   SOUTHWEST IOWA

CITY           SKY/WX    TMP DP  RH WIND       PRES   REMARKS
ATLANTIC *     PTSUNNY   77  70  78 NE10G17   29.89F
AUDUBON *      MOSUNNY   73  66  78 NE9       29.92S
CLARINDA *     PTSUNNY   82  72  69 NE12G17   29.87S HX  87
COUNCIL BLFS * MOSUNNY   82  70  65 E8G14     29.87S HX  86
CRESTON *      MOSUNNY   77  68  73 E12       29.89F
HARLAN  *      PTSUNNY   75  73  94 E13       29.93S
LAMONI         CLOUDY    80  69  69 NE3       29.88F HX  83
RED OAK *      MOSUNNY   82  70  65 E9        29.86F HX  86
SHENANDOAH *   PTSUNNY   82  72  69 NE12G17   29.85S HX  87
$$

IAZ047>049-059>061-072>074-084-012300-
   CENTRAL IOWA

CITY           SKY/WX    TMP DP  RH WIND       PRES   REMARKS
AMES           PTSUNNY   73  57  57 NE10      29.92S
ANKENY *       PTSUNNY   73  64  73 E8        29.91S
CHARITON *     MOSUNNY   73  66  78 NE14G21   29.90S
DES MOINES     CLOUDY    75  62  64 E6        29.91S
GRINNELL*      PTSUNNY   72  59  64 NE13      29.93S
KNOXVILLE *    CLOUDY    72  64  78 E6G12     29.90F
MARSHALLTOWN   PTSUNNY   71  57  61 NE13      29.93F
PELLA *        PTSUNNY   73  66  78 E7        29.92S
PERRY *        PTSUNNY   73  63  68 E9        29.92S
$$

IAZ004>006-015-016-023>025-035-036-012300-
   NORTH CENTRAL IOWA

CITY           SKY/WX    TMP DP  RH WIND       PRES   REMARKS
ALGONA *       PTSUNNY   70  55  60 E9        29.97F
CLARION *      MOSUNNY   68  54  60 E13       29.96F
ESTHERVILLE    PTSUNNY   69  55  60 E12       29.98S
FORT DODGE *   CLOUDY    68  55  64 E12       29.96S
MASON CITY     PTSUNNY   64  56  75 E6        30.00S
FOREST CITY *  PTSUNNY   63  54  72 E6        29.99S
IOWA FALLS *   CLOUDY    66  57  72 NE8       29.97S
$$

IAZ007>011-017>019-026>030-037>042-050>054-066-012300-
   NORTHEAST IOWA

CITY           SKY/WX    TMP DP  RH WIND       PRES   REMARKS
CEDAR RAPIDS   MOSUNNY   71  60  68 NE12      29.93F
CHARLES CITY * MOSUNNY   64  54  68 NE6       29.99F
CLINTON *      PTSUNNY   70  55  60 E9        29.97S
DECORAH *        N/A    N/A N/A N/A MISG        N/A
DUBUQUE        CLOUDY    66  56  70 NE5       29.96F
MONTICELLO *   SUNNY     66  66 100 NE5       29.95F
OELWEIN *        N/A     64  57  77 NE7       29.98S
WATERLOO       CLOUDY    64  58  80 E5        29.96S
$$

IAZ064-065-067-068-078-012300-
   EAST CENTRAL IOWA

CITY           SKY/WX    TMP DP  RH WIND       PRES   REMARKS
DAVENPORT      PTSUNNY   72  59  63 NE9       29.94S
IOWA CITY      MOSUNNY   73  58  59 E10       29.93F
MT. PLEASANT * CLOUDY    75  61  60 NE10      29.91R
MUSCATINE *    SUNNY     73  59  60 NE10      29.92F
QUAD CITIES    PTSUNNY   74  60  61 E8        29.92F
$$

IAZ062-063-075>077-085>089-095>099-012300-
   SOUTHEAST IOWA

CITY           SKY/WX    TMP DP  RH WIND       PRES   REMARKS
BURLINGTON     CLOUDY    75  67  76 NE10      29.89F
FAIRFIELD *    PTSUNNY   73  64  73 NE9       29.91S
FORT MADISON * CLOUDY    72  70  94 NE6       29.90F
KEOKUK *       CLOUDY    77  70  78 NE10G16   29.88S
OSKALOOSA *    CLOUDY    73  64  73 NE3       29.91F
CENTERVILLE *  CLOUDY    75  68  78 NE9       29.91R
OTTUMWA        CLOUDY    73  65  75 E8        29.89S
WASHINGTON *   MOSUNNY   75  63  64 NE15      29.93S
$$

ABBREVIATIONS USED IN REMARKS
   TC - TEMPERATURES IN CELSIUS
  WCI - WIND CHILL INDEX
   HX - HEAT INDEX
  VSB - VISIBILITY
$$




USA.gov is the U.S. government's official web portal to all federal, state and local government web resources and services.